Time,TemperatureF,DewpointF,PressureIn,WindDirection,WindDirectionDegrees,WindSpeedMPH,WindSpeedGustMPH,Humidity,HourlyPrecipIn,Conditions,Clouds,dailyrainin,SoftwareType,DateUTC
2013-07-12 00:01:00,58.0,52.0,29.71,East,80,0.0,-999.0,80,-99.99,,,-99.99,,2013-07-12 06:01:00,
2013-07-12 00:11:00,58.0,53.0,29.71,East,80,0.0,-999.0,82,-99.99,,,-99.99,,2013-07-12 06:11:00,
2013-07-12 00:22:00,58.0,52.0,29.70,East,80,0.0,-999.0,81,-99.99,,,-99.99,,2013-07-12 06:22:00,
2013-07-12 00:32:00,58.0,52.0,29.70,East,80,0.0,-999.0,81,-99.99,,,-99.99,,2013-07-12 06:32:00,
2013-07-12 00:42:00,58.0,53.0,29.70,East,80,0.0,-999.0,83,-99.99,,,-99.99,,2013-07-12 06:42:00,
2013-07-12 00:52:00,57.0,52.0,29.70,East,80,0.0,-999.0,83,-99.99,,,-99.99,,2013-07-12 06:52:00,
2013-07-12 01:02:00,57.0,52.0,29.70,East,80,0.0,-999.0,83,-99.99,,,-99.99,,2013-07-12 07:02:00,
2013-07-12 01:12:00,57.0,52.0,29.70,East,80,0.0,-999.0,84,-99.99,,,-99.99,,2013-07-12 07:12:00,
2013-07-12 01:22:00,57.0,52.0,29.70,East,80,0.0,-999.0,84,-99.99,,,-99.99,,2013-07-12 07:22:00,
2013-07-12 01:32:00,57.0,52.0,29.70,East,80,0.0,-999.0,84,-99.99,,,-99.99,,2013-07-12 07:32:00,
2013-07-12 01:43:00,56.0,51.0,29.70,East,80,0.0,-999.0,83,-99.99,,,-99.99,,2013-07-12 07:43:00,
2013-07-12 01:52:00,55.0,50.0,29.70,East,80,0.0,-999.0,84,-99.99,,,-99.99,,2013-07-12 07:52:00,
2013-07-12 02:01:00,55.0,50.0,29.70,East,80,0.0,-999.0,84,-99.99,,,-99.99,,2013-07-12 08:01:00,
2013-07-12 02:11:00,55.0,51.0,29.70,East,80,0.0,-999.0,85,-99.99,,,-99.99,,2013-07-12 08:11:00,
2013-07-12 02:21:00,55.0,51.0,29.70,East,80,0.0,-999.0,85,-99.99,,,-99.99,,2013-07-12 08:21:00,
2013-07-12 02:32:00,55.0,51.0,29.70,East,80,0.0,-999.0,85,-99.99,,,-99.99,,2013-07-12 08:32:00,
2013-07-12 02:42:00,55.0,51.0,29.70,East,80,0.0,-999.0,85,-99.99,,,-99.99,,2013-07-12 08:42:00,
2013-07-12 02:53:00,55.0,51.0,29.69,East,80,0.0,-999.0,85,-99.99,,,-99.99,,2013-07-12 08:53:00,
2013-07-12 03:02:00,55.0,51.0,29.69,East,80,0.0,-999.0,85,-99.99,,,-99.99,,2013-07-12 09:02:00,
2013-07-12 03:12:00,55.0,51.0,29.69,East,80,0.0,-999.0,85,-99.99,,,-99.99,,2013-07-12 09:12:00,
2013-07-12 03:22:00,54.0,50.0,29.69,East,80,0.0,-999.0,86,-99.99,,,-99.99,,2013-07-12 09:22:00,
2013-07-12 03:32:00,54.0,50.0,29.69,East,80,0.0,-999.0,86,-99.99,,,-99.99,,2013-07-12 09:32:00,
2013-07-12 03:42:00,54.0,50.0,29.69,East,80,0.0,-999.0,86,-99.99,,,-99.99,,2013-07-12 09:42:00,
2013-07-12 03:52:00,54.0,50.0,29.69,East,80,0.0,-999.0,86,-99.99,,,-99.99,,2013-07-12 09:52:00,
2013-07-12 04:01:00,54.0,50.0,29.69,East,80,0.0,-999.0,86,-99.99,,,-99.99,,2013-07-12 10:01:00,
2013-07-12 04:11:00,54.0,49.0,29.69,East,80,0.0,-999.0,84,-99.99,,,-99.99,,2013-07-12 10:11:00,
2013-07-12 04:22:00,53.0,49.0,29.70,East,80,0.0,-999.0,86,-99.99,,,-99.99,,2013-07-12 10:22:00,
2013-07-12 04:33:00,53.0,49.0,29.70,East,80,0.0,-999.0,86,-99.99,,,-99.99,,2013-07-12 10:33:00,
2013-07-12 04:42:00,53.0,49.0,29.69,East,80,0.0,-999.0,86,-99.99,,,-99.99,,2013-07-12 10:42:00,
2013-07-12 04:52:00,53.0,49.0,29.69,East,80,0.0,-999.0,86,-99.99,,,-99.99,,2013-07-12 10:52:00,
2013-07-12 05:02:00,53.0,49.0,29.69,East,80,0.0,-999.0,86,-99.99,,,-99.99,,2013-07-12 11:02:00,
2013-07-12 05:11:00,53.0,49.0,29.70,East,80,0.0,-999.0,87,-99.99,,,-99.99,,2013-07-12 11:11:00,
2013-07-12 05:22:00,53.0,49.0,29.70,East,80,0.0,-999.0,86,-99.99,,,-99.99,,2013-07-12 11:22:00,
2013-07-12 05:32:00,53.0,49.0,29.70,East,80,0.0,-999.0,86,-99.99,,,-99.99,,2013-07-12 11:32:00,
2013-07-12 05:43:00,52.0,48.0,29.71,East,80,0.0,-999.0,87,-99.99,,,-99.99,,2013-07-12 11:43:00,
2013-07-12 05:52:00,53.0,49.0,29.71,East,80,0.0,-999.0,87,-99.99,,,-99.99,,2013-07-12 11:52:00,
2013-07-12 06:01:00,53.0,49.0,29.71,East,80,0.0,-999.0,87,-99.99,,,-99.99,,2013-07-12 12:01:00,
2013-07-12 06:11:00,53.0,49.0,29.72,East,80,0.0,-999.0,87,-99.99,,,-99.99,,2013-07-12 12:11:00,
2013-07-12 06:22:00,53.0,49.0,29.72,East,80,0.0,-999.0,86,-99.99,,,-99.99,,2013-07-12 12:22:00,
2013-07-12 06:32:00,53.0,49.0,29.72,East,80,0.0,-999.0,86,-99.99,,,-99.99,,2013-07-12 12:32:00,
2013-07-12 06:43:00,53.0,49.0,29.71,East,80,0.0,-999.0,86,-99.99,,,-99.99,,2013-07-12 12:43:00,
2013-07-12 06:52:00,53.0,49.0,29.72,East,80,0.0,-999.0,86,-99.99,,,-99.99,,2013-07-12 12:52:00,
2013-07-12 07:01:00,53.0,49.0,29.72,East,80,0.0,-999.0,86,-99.99,,,-99.99,,2013-07-12 13:01:00,
2013-07-12 07:12:00,54.0,50.0,29.72,East,80,0.0,-999.0,85,-99.99,,,-99.99,,2013-07-12 13:12:00,
2013-07-12 07:22:00,54.0,50.0,29.72,East,80,0.0,-999.0,85,-99.99,,,-99.99,,2013-07-12 13:22:00,
2013-07-12 07:32:00,54.0,50.0,29.72,East,80,0.0,-999.0,85,-99.99,,,-99.99,,2013-07-12 13:32:00,
2013-07-12 07:43:00,55.0,50.0,29.72,East,80,0.0,-999.0,84,-99.99,,,-99.99,,2013-07-12 13:43:00,
2013-07-12 07:53:00,55.0,51.0,29.72,East,80,0.0,-999.0,85,-99.99,,,-99.99,,2013-07-12 13:53:00,
2013-07-12 08:02:00,55.0,51.0,29.72,East,80,0.0,-999.0,85,-99.99,,,-99.99,,2013-07-12 14:02:00,
2013-07-12 08:11:00,56.0,51.0,29.72,East,80,0.0,-999.0,83,-99.99,,,-99.99,,2013-07-12 14:11:00,
2013-07-12 08:22:00,57.0,51.0,29.72,East,80,0.0,-999.0,79,-99.99,,,-99.99,,2013-07-12 14:22:00,
2013-07-12 08:32:00,57.0,51.0,29.72,East,80,0.0,-999.0,79,-99.99,,,-99.99,,2013-07-12 14:32:00,
2013-07-12 08:43:00,59.0,51.0,29.72,East,80,0.0,-999.0,75,-99.99,,,-99.99,,2013-07-12 14:43:00,
2013-07-12 08:53:00,59.0,51.0,29.72,East,80,0.0,-999.0,74,-99.99,,,-99.99,,2013-07-12 14:53:00,
2013-07-12 09:01:00,59.0,51.0,29.72,East,80,0.0,-999.0,74,-99.99,,,-99.99,,2013-07-12 15:01:00,
2013-07-12 09:11:00,62.0,52.0,29.73,East,80,0.0,-999.0,70,-99.99,,,-99.99,,2013-07-12 15:11:00,
2013-07-12 09:22:00,62.0,52.0,29.73,East,80,0.0,-999.0,69,-99.99,,,-99.99,,2013-07-12 15:22:00,
2013-07-12 09:33:00,62.0,52.0,29.73,East,80,0.0,-999.0,69,-99.99,,,-99.99,,2013-07-12 15:33:00,
2013-07-12 09:43:00,63.0,51.0,29.72,East,80,0.0,-999.0,66,-99.99,,,-99.99,,2013-07-12 15:43:00,
2013-07-12 09:52:00,65.0,52.0,29.72,East,80,0.0,-999.0,63,-99.99,,,-99.99,,2013-07-12 15:52:00,
2013-07-12 10:01:00,65.0,52.0,29.72,East,80,0.0,-999.0,63,-99.99,,,-99.99,,2013-07-12 16:01:00,
2013-07-12 10:11:00,66.0,53.0,29.72,SSE,168,0.0,-999.0,62,-99.99,,,-99.99,,2013-07-12 16:11:00,
2013-07-12 10:22:00,67.0,52.0,29.72,SSE,167,1.0,-999.0,58,-99.99,,,-99.99,,2013-07-12 16:22:00,
2013-07-12 10:32:00,67.0,52.0,29.72,SSE,167,1.0,-999.0,58,-99.99,,,-99.99,,2013-07-12 16:32:00,
2013-07-12 10:43:00,69.0,52.0,29.72,SSE,165,1.0,-999.0,55,-99.99,,,-99.99,,2013-07-12 16:43:00,
2013-07-12 10:55:00,71.0,52.0,29.71,East,93,1.0,-999.0,52,-99.99,,,-99.99,,2013-07-12 16:55:00,
2013-07-12 11:05:00,71.0,52.0,29.71,East,93,1.0,-999.0,52,-99.99,,,-99.99,,2013-07-12 17:05:00,
2013-07-12 11:13:00,72.0,52.0,29.71,ESE,103,3.0,-999.0,49,-99.99,,,-99.99,,2013-07-12 17:13:00,
2013-07-12 11:23:00,72.0,51.0,29.71,SSE,164,2.0,-999.0,48,-99.99,,,-99.99,,2013-07-12 17:23:00,
2013-07-12 11:35:00,72.0,51.0,29.71,SSE,164,2.0,-999.0,48,-99.99,,,-99.99,,2013-07-12 17:35:00,
2013-07-12 11:44:00,72.0,51.0,29.71,SSE,164,2.0,-999.0,48,-99.99,,,-99.99,,2013-07-12 17:44:00,
2013-07-12 11:53:00,72.0,51.0,29.71,SSE,164,2.0,-999.0,48,-99.99,,,-99.99,,2013-07-12 17:53:00,
2013-07-12 19:40:00,62.0,50.0,29.73,SW,219,2.0,-999.0,65,-99.99,,,-99.99,,2013-07-13 01:40:00,
2013-07-12 19:56:00,60.0,51.0,29.73,NNW,338,0.0,-999.0,73,-99.99,,,-99.99,,2013-07-13 01:56:00,
2013-07-12 20:04:00,60.0,51.0,29.73,NNW,338,0.0,-999.0,73,-99.99,,,-99.99,,2013-07-13 02:04:00,
2013-07-12 20:14:00,59.0,51.0,29.72,NNW,338,0.0,-999.0,74,-99.99,,,-99.99,,2013-07-13 02:14:00,
2013-07-12 20:22:00,59.0,50.0,29.73,NNE,26,0.0,-999.0,73,-99.99,,,-99.99,,2013-07-13 02:22:00,
2013-07-12 20:35:00,59.0,50.0,29.73,NNE,26,0.0,-999.0,73,-99.99,,,-99.99,,2013-07-13 02:35:00,
2013-07-12 20:45:00,59.0,50.0,29.73,NNE,26,0.0,-999.0,72,-99.99,,,-99.99,,2013-07-13 02:45:00,
2013-07-12 20:53:00,59.0,50.0,29.74,NE,56,0.0,-999.0,71,-99.99,,,-99.99,,2013-07-13 02:53:00,
2013-07-12 21:04:00,59.0,50.0,29.74,NE,56,0.0,-999.0,71,-99.99,,,-99.99,,2013-07-13 03:04:00,
2013-07-12 21:25:00,60.0,50.0,29.74,NE,56,0.0,-999.0,69,-99.99,,,-99.99,,2013-07-13 03:25:00,
2013-07-12 21:35:00,60.0,50.0,29.74,NE,56,0.0,-999.0,69,-99.99,,,-99.99,,2013-07-13 03:35:00,
2013-07-12 21:44:00,59.0,50.0,29.76,NE,56,0.0,-999.0,73,-99.99,,,-99.99,,2013-07-13 03:44:00,
2013-07-12 21:54:00,58.0,50.0,29.77,NE,56,0.0,-999.0,76,-99.99,,,-99.99,,2013-07-13 03:54:00,
2013-07-12 22:01:00,58.0,50.0,29.77,NE,56,0.0,-999.0,76,-99.99,,,-99.99,,2013-07-13 04:01:00,
2013-07-12 22:11:00,57.0,51.0,29.77,NE,56,0.0,-999.0,79,-99.99,,,-99.99,,2013-07-13 04:11:00,
2013-07-12 22:22:00,57.0,51.0,29.78,NE,56,0.0,-999.0,80,-99.99,,,-99.99,,2013-07-13 04:22:00,
2013-07-12 22:32:00,57.0,51.0,29.78,NE,56,0.0,-999.0,80,-99.99,,,-99.99,,2013-07-13 04:32:00,
2013-07-12 22:43:00,56.0,51.0,29.78,NE,56,0.0,-999.0,82,-99.99,,,-99.99,,2013-07-13 04:43:00,
2013-07-12 22:52:00,56.0,49.0,29.79,NE,56,0.0,-999.0,78,-99.99,,,-99.99,,2013-07-13 04:52:00,
2013-07-12 23:01:00,56.0,49.0,29.79,NE,56,0.0,-999.0,78,-99.99,,,-99.99,,2013-07-13 05:01:00,
2013-07-12 23:11:00,56.0,50.0,29.79,NE,56,0.0,-999.0,81,-99.99,,,-99.99,,2013-07-13 05:11:00,
2013-07-12 23:21:00,55.0,49.0,29.80,NE,56,0.0,-999.0,80,-99.99,,,-99.99,,2013-07-13 05:21:00,
2013-07-12 23:32:00,55.0,49.0,29.80,NE,56,0.0,-999.0,80,-99.99,,,-99.99,,2013-07-13 05:32:00,
2013-07-12 23:42:00,55.0,48.0,29.80,NE,56,0.0,-999.0,78,-99.99,,,-99.99,,2013-07-13 05:42:00,
2013-07-12 23:52:00,55.0,48.0,29.80,NE,56,0.0,-999.0,77,-99.99,,,-99.99,,2013-07-13 05:52:00,